Time,TemperatureF,DewpointF,PressureIn,WindDirection,WindDirectionDegrees,WindSpeedMPH,WindSpeedGustMPH,Humidity,HourlyPrecipIn,Conditions,Clouds,dailyrainin,SoftwareType,DateUTC
2013-03-21 00:00:00,20.5,16.2,29.70,SSE,157,0.0,-999.0,83,-99.99,,,0.00,Acu-Link.com,2013-03-21 04:00:00,
2013-03-21 00:15:00,21.0,15.5,29.71,SW,225,1.7,-999.0,79,-99.99,,,0.00,Acu-Link.com,2013-03-21 04:15:00,
2013-03-21 00:30:00,21.0,14.6,29.70,WSW,247,2.7,-999.0,76,-99.99,,,0.00,Acu-Link.com,2013-03-21 04:30:00,
2013-03-21 00:45:00,21.0,14.9,29.70,SE,135,2.7,-999.0,77,-99.99,,,0.00,Acu-Link.com,2013-03-21 04:45:00,
2013-03-21 01:00:00,21.2,14.5,29.71,SSW,202,0.0,-999.0,75,-99.99,,,0.00,Acu-Link.com,2013-03-21 05:00:00,
2013-03-21 01:16:00,20.5,13.9,29.71,SSE,157,1.7,-999.0,75,-99.99,,,0.00,Acu-Link.com,2013-03-21 05:16:00,
2013-03-21 01:31:00,20.1,13.2,29.71,South,180,1.7,-999.0,74,-99.99,,,0.00,Acu-Link.com,2013-03-21 05:31:00,
2013-03-21 02:31:00,19.8,12.6,29.70,SSW,202,3.2,-999.0,73,-99.99,,,0.00,Acu-Link.com,2013-03-21 06:31:00,
2013-03-21 02:46:00,19.2,12.3,29.69,SSE,157,1.7,-999.0,74,-99.99,,,0.00,Acu-Link.com,2013-03-21 06:46:00,
2013-03-21 03:01:00,18.5,11.9,29.69,SSW,202,2.7,-999.0,75,-99.99,,,0.00,Acu-Link.com,2013-03-21 07:01:00,
2013-03-21 03:32:00,18.1,11.8,29.68,SSW,202,1.7,-999.0,76,-99.99,,,0.00,Acu-Link.com,2013-03-21 07:32:00,
2013-03-21 03:47:00,18.5,12.2,29.67,SSW,202,1.7,-999.0,76,-99.99,,,0.00,Acu-Link.com,2013-03-21 07:47:00,
2013-03-21 04:02:00,17.4,11.4,29.68,South,180,2.2,-999.0,77,-99.99,,,0.00,Acu-Link.com,2013-03-21 08:02:00,
2013-03-21 04:17:00,16.7,11.1,29.69,ESE,112,1.1,-999.0,78,-99.99,,,0.00,Acu-Link.com,2013-03-21 08:17:00,
2013-03-21 04:32:00,16.2,10.9,29.67,SE,135,0.0,-999.0,79,-99.99,,,0.00,Acu-Link.com,2013-03-21 08:32:00,
2013-03-21 04:47:00,16.3,11.2,29.67,West,270,1.7,-999.0,80,-99.99,,,0.00,Acu-Link.com,2013-03-21 08:47:00,
2013-03-21 05:02:00,16.5,11.4,29.67,South,180,1.7,-999.0,80,-99.99,,,0.00,Acu-Link.com,2013-03-21 09:02:00,
2013-03-21 05:17:00,16.0,10.9,29.65,WSW,247,2.7,-999.0,80,-99.99,,,0.00,Acu-Link.com,2013-03-21 09:17:00,
2013-03-21 05:32:00,16.2,11.1,29.64,WSW,247,1.7,-999.0,80,-99.99,,,0.00,Acu-Link.com,2013-03-21 09:32:00,
2013-03-21 05:48:00,16.0,10.7,29.65,SW,225,1.7,-999.0,79,-99.99,,,0.00,Acu-Link.com,2013-03-21 09:48:00,
2013-03-21 06:03:00,16.3,11.0,29.65,SSE,157,0.0,-999.0,79,-99.99,,,0.00,Acu-Link.com,2013-03-21 10:03:00,
2013-03-21 06:18:00,15.6,10.3,29.65,South,180,2.7,-999.0,79,-99.99,,,0.00,Acu-Link.com,2013-03-21 10:18:00,
2013-03-21 06:33:00,14.9,9.6,29.65,East,90,0.0,-999.0,79,-99.99,,,0.00,Acu-Link.com,2013-03-21 10:33:00,
2013-03-21 06:48:00,11.8,5.4,29.66,NNE,22,1.1,-999.0,75,-99.99,,,0.00,Acu-Link.com,2013-03-21 10:48:00,
2013-03-21 07:03:00,10.2,4.2,29.66,ENE,67,0.0,-999.0,76,-99.99,,,0.00,Acu-Link.com,2013-03-21 11:03:00,
2013-03-21 07:18:00,9.9,3.9,29.67,West,270,0.0,-999.0,76,-99.99,,,0.00,Acu-Link.com,2013-03-21 11:18:00,
2013-03-21 07:33:00,10.8,5.6,29.67,NE,45,0.0,-999.0,79,-99.99,,,0.00,Acu-Link.com,2013-03-21 11:33:00,
2013-03-21 07:48:00,12.0,7.3,29.68,SW,225,0.0,-999.0,81,-99.99,,,0.00,Acu-Link.com,2013-03-21 11:48:00,
2013-03-21 08:04:00,14.7,10.2,29.68,SW,225,1.7,-999.0,82,-99.99,,,0.00,Acu-Link.com,2013-03-21 12:04:00,
2013-03-21 08:19:00,18.1,11.5,29.68,South,180,1.7,-999.0,75,-99.99,,,0.00,Acu-Link.com,2013-03-21 12:19:00,
2013-03-21 08:34:00,21.2,13.0,29.68,WSW,247,1.1,-999.0,70,-99.99,,,0.00,Acu-Link.com,2013-03-21 12:34:00,
2013-03-21 08:49:00,25.0,14.2,29.68,ESE,112,2.2,-999.0,63,-99.99,,,0.00,Acu-Link.com,2013-03-21 12:49:00,
2013-03-21 09:04:00,23.7,12.2,29.68,NNW,337,1.1,-999.0,61,-99.99,,,0.00,Acu-Link.com,2013-03-21 13:04:00,
2013-03-21 09:19:00,26.6,13.8,29.67,NNW,337,1.7,-999.0,58,-99.99,,,0.00,Acu-Link.com,2013-03-21 13:19:00,
2013-03-21 09:34:00,28.0,13.9,29.67,NNW,337,2.7,-999.0,55,-99.99,,,0.00,Acu-Link.com,2013-03-21 13:34:00,
2013-03-21 09:49:00,28.8,13.4,29.67,WNW,292,3.7,-999.0,52,-99.99,,,0.00,Acu-Link.com,2013-03-21 13:49:00,
2013-03-21 10:04:00,30.6,14.2,29.67,West,270,5.3,-999.0,50,-99.99,,,0.00,Acu-Link.com,2013-03-21 14:04:00,
2013-03-21 10:20:00,30.6,14.6,29.67,WSW,247,2.2,-999.0,51,-99.99,,,0.00,Acu-Link.com,2013-03-21 14:20:00,
2013-03-21 10:35:00,31.3,14.4,29.67,SSE,157,2.2,-999.0,49,-99.99,,,0.00,Acu-Link.com,2013-03-21 14:35:00,
2013-03-21 10:50:00,31.3,13.9,29.66,West,270,3.2,-999.0,48,-99.99,,,0.00,Acu-Link.com,2013-03-21 14:50:00,
2013-03-21 11:05:00,32.9,15.4,29.66,NNW,337,3.7,-999.0,48,-99.99,,,0.00,Acu-Link.com,2013-03-21 15:05:00,
2013-03-21 11:20:00,34.0,13.9,29.66,West,270,1.7,-999.0,43,-99.99,,,0.00,Acu-Link.com,2013-03-21 15:20:00,
2013-03-21 11:35:00,34.7,14.5,29.66,West,270,4.7,-999.0,43,-99.99,,,0.00,Acu-Link.com,2013-03-21 15:35:00,
2013-03-21 11:50:00,33.8,14.2,29.66,SSW,202,4.2,-999.0,44,-99.99,,,0.02,Acu-Link.com,2013-03-21 15:50:00,
2013-03-21 12:05:00,31.3,11.4,29.64,NNW,337,2.7,-999.0,43,-99.99,,,0.02,Acu-Link.com,2013-03-21 16:05:00,
2013-03-21 12:20:00,33.3,11.6,29.64,WNW,292,2.7,-999.0,40,-99.99,,,0.03,Acu-Link.com,2013-03-21 16:20:00,
2013-03-21 12:36:00,35.1,11.5,29.64,WSW,247,5.8,-999.0,37,-99.99,,,0.03,Acu-Link.com,2013-03-21 16:36:00,
2013-03-21 12:51:00,32.4,10.8,29.64,North,0,5.8,-999.0,40,-99.99,,,0.04,Acu-Link.com,2013-03-21 16:51:00,
2013-03-21 13:06:00,34.5,10.9,29.64,NNE,22,4.2,-999.0,37,-99.99,,,0.05,Acu-Link.com,2013-03-21 17:06:00,
2013-03-21 13:36:00,34.7,11.1,29.63,West,270,2.2,-999.0,37,-99.99,,,0.07,Acu-Link.com,2013-03-21 17:36:00,
2013-03-21 13:51:00,35.4,10.5,29.62,South,180,2.2,-999.0,35,-99.99,,,0.07,Acu-Link.com,2013-03-21 17:51:00,
2013-03-21 14:06:00,32.9,8.9,29.62,NW,315,3.7,-999.0,36,-99.99,,,0.08,Acu-Link.com,2013-03-21 18:06:00,
2013-03-21 14:21:00,32.7,9.9,29.61,West,270,3.7,-999.0,38,-99.99,,,0.08,Acu-Link.com,2013-03-21 18:21:00,
2013-03-21 14:36:00,34.7,9.9,29.60,WNW,292,5.3,-999.0,35,-99.99,,,0.09,Acu-Link.com,2013-03-21 18:36:00,
2013-03-21 14:52:00,36.5,11.5,29.61,West,270,4.2,-999.0,35,-99.99,,,0.09,Acu-Link.com,2013-03-21 18:52:00,
2013-03-21 15:07:00,35.4,10.5,29.60,North,0,3.2,-999.0,35,-99.99,,,0.09,Acu-Link.com,2013-03-21 19:07:00,
2013-03-21 15:22:00,33.4,10.0,29.61,West,270,4.7,-999.0,37,-99.99,,,0.10,Acu-Link.com,2013-03-21 19:22:00,
2013-03-21 15:37:00,34.0,11.7,29.60,WSW,247,5.8,-999.0,39,-99.99,,,0.10,Acu-Link.com,2013-03-21 19:37:00,
2013-03-21 15:52:00,31.8,11.4,29.60,West,270,6.3,-999.0,42,-99.99,,,0.10,Acu-Link.com,2013-03-21 19:52:00,
2013-03-21 16:07:00,33.3,12.7,29.60,West,270,6.8,-999.0,42,-99.99,,,0.10,Acu-Link.com,2013-03-21 20:07:00,
2013-03-21 16:22:00,33.6,11.9,29.59,NW,315,6.8,-999.0,40,-99.99,,,0.10,Acu-Link.com,2013-03-21 20:22:00,
2013-03-21 16:37:00,33.3,11.6,29.60,West,270,6.3,-999.0,40,-99.99,,,0.10,Acu-Link.com,2013-03-21 20:37:00,
2013-03-21 17:08:00,32.0,13.1,29.58,West,270,7.8,-999.0,45,-99.99,,,0.10,Acu-Link.com,2013-03-21 21:08:00,
2013-03-21 17:23:00,32.7,13.2,29.57,NNW,337,4.2,-999.0,44,-99.99,,,0.10,Acu-Link.com,2013-03-21 21:23:00,
2013-03-21 17:38:00,31.8,11.9,29.58,West,270,3.7,-999.0,43,-99.99,,,0.10,Acu-Link.com,2013-03-21 21:38:00,
2013-03-21 17:53:00,30.9,12.1,29.58,West,270,4.7,-999.0,45,-99.99,,,0.10,Acu-Link.com,2013-03-21 21:53:00,
2013-03-21 18:08:00,29.8,11.1,29.58,West,270,5.8,-999.0,45,-99.99,,,0.10,Acu-Link.com,2013-03-21 22:08:00,
2013-03-21 18:23:00,29.5,11.3,29.59,NNW,337,2.2,-999.0,46,-99.99,,,0.10,Acu-Link.com,2013-03-21 22:23:00,
2013-03-21 18:38:00,29.8,11.6,29.59,West,270,5.3,-999.0,46,-99.99,,,0.10,Acu-Link.com,2013-03-21 22:38:00,
2013-03-21 18:53:00,28.4,10.8,29.60,SW,225,2.7,-999.0,47,-99.99,,,0.10,Acu-Link.com,2013-03-21 22:53:00,
2013-03-21 19:08:00,28.0,11.3,29.60,West,270,2.7,-999.0,49,-99.99,,,0.10,Acu-Link.com,2013-03-21 23:08:00,
2013-03-21 19:24:00,27.9,11.2,29.60,WSW,247,1.7,-999.0,49,-99.99,,,0.10,Acu-Link.com,2013-03-21 23:24:00,
2013-03-21 19:39:00,27.7,11.5,29.60,WSW,247,1.7,-999.0,50,-99.99,,,0.10,Acu-Link.com,2013-03-21 23:39:00,
2013-03-21 19:54:00,27.3,12.5,29.60,West,270,2.2,-999.0,53,-99.99,,,0.10,Acu-Link.com,2013-03-21 23:54:00,
2013-03-21 20:09:00,26.8,12.8,29.60,SSW,202,0.0,-999.0,55,-99.99,,,0.10,Acu-Link.com,2013-03-22 00:09:00,
2013-03-21 20:24:00,26.2,13.1,29.60,West,270,1.7,-999.0,57,-99.99,,,0.10,Acu-Link.com,2013-03-22 00:24:00,
2013-03-21 20:39:00,25.7,13.0,29.60,SW,225,1.7,-999.0,58,-99.99,,,0.10,Acu-Link.com,2013-03-22 00:39:00,
2013-03-21 20:54:00,25.0,13.1,29.61,SW,225,0.0,-999.0,60,-99.99,,,0.10,Acu-Link.com,2013-03-22 00:54:00,
2013-03-21 21:09:00,24.4,13.3,29.61,South,180,1.7,-999.0,62,-99.99,,,0.10,Acu-Link.com,2013-03-22 01:09:00,
2013-03-21 21:24:00,23.9,13.5,29.60,SSW,202,0.0,-999.0,64,-99.99,,,0.10,Acu-Link.com,2013-03-22 01:24:00,
2013-03-21 21:40:00,23.4,13.4,29.61,WSW,247,0.0,-999.0,65,-99.99,,,0.10,Acu-Link.com,2013-03-22 01:40:00,
2013-03-21 21:55:00,23.2,12.9,29.61,SSE,157,1.7,-999.0,64,-99.99,,,0.10,Acu-Link.com,2013-03-22 01:55:00,
2013-03-21 22:10:00,23.5,12.8,29.61,SW,225,1.7,-999.0,63,-99.99,,,0.10,Acu-Link.com,2013-03-22 02:10:00,
2013-03-21 22:25:00,22.8,12.5,29.61,SSW,202,0.0,-999.0,64,-99.99,,,0.10,Acu-Link.com,2013-03-22 02:25:00,
2013-03-21 22:40:00,22.6,12.3,29.61,SSW,202,1.7,-999.0,64,-99.99,,,0.10,Acu-Link.com,2013-03-22 02:40:00,
2013-03-21 22:55:00,23.0,13.0,29.61,SW,225,2.2,-999.0,65,-99.99,,,0.10,Acu-Link.com,2013-03-22 02:55:00,
2013-03-21 23:10:00,23.2,13.9,29.61,WNW,292,2.7,-999.0,67,-99.99,,,0.10,Acu-Link.com,2013-03-22 03:10:00,
2013-03-21 23:25:00,22.5,13.6,29.61,SSE,157,1.7,-999.0,68,-99.99,,,0.10,Acu-Link.com,2013-03-22 03:25:00,
2013-03-21 23:40:00,22.1,12.8,29.60,South,180,1.7,-999.0,67,-99.99,,,0.10,Acu-Link.com,2013-03-22 03:40:00,
2013-03-21 23:56:00,21.0,11.8,29.60,ESE,112,0.0,-999.0,67,-99.99,,,0.10,Acu-Link.com,2013-03-22 03:56:00,